Location: Newark
(38.1089°N, 103.8675°W)
Time: 11:20:57
(UTC+00:00)

Envisat - Pass Details

Date: 24 December 2019
Orbit: 764 x 766 km, 98.1° (Epoch: 18 January)

Event Time Altitude Azimuth Distance (km) Brightness Sun altitude
Rises 02:12:32 0° 212° (SSW) 3,219 6.8 -29.1°
Reaches altitude 10° 02:15:56 10° 236° (WSW) 2,298 6.2 -29.7°
Maximum altitude 02:18:38 14° 269° (W) 2,011 6.0 -30.3°
Drops below altitude 10° 02:21:20 10° 301° (WNW) 2,306 6.0 -30.8°
Sets 02:24:47 0° 326° (NW) 3,238 6.6 -31.5°
